Notices

What's New in latest Release from April 7th, 2021:

- Updated Glossary, including Speed of Maximum Gust, and Total Hourly Precipitation

- Updated national and regional climate services offices contacts and prices information

- Addition of station inventory lists for 1981-2010, 1971-2000, and 1961-1990 Normals.

If you haven't already, please take our survey and provide feedback about our website: https://eccc.sondage-survey.ca/f/LanguageSelection.aspx?s=442ca660-fcf1-47c0-95a9-59707d6fd709

Hourly Data Report for December 19, 2004

TORONTO CITY
ONTARIO

43°40'00.000" N
79°24'00.000" W
112.50 m
6158355
71508
XTO

Download Data

Hourly Data (December 2004)
Hourly Data Report for December 19, 2004
TIME
LST
Temp Definition
°C
Dew Point Definition
°C
Rel Hum Definition
%
Precip. Amount Definition
mm

Wind Dir Definition
10's deg

Wind Spd Definition
km/h
Visibility Definition
km
Stn Press Definition
kPa
Hmdx Definition


Wind Chill Definition


Weather Definition


00:00 2.7 0.9 88   LegendMM LegendMM LegendMM 99.03     LegendNANA
01:00 2.7 0.9 88   LegendMM LegendMM LegendMM 98.96     LegendNANA
02:00 2.5 0.5 87   LegendMM LegendMM LegendMM 98.95     LegendNANA
03:00 -2.0 -4.7 82   LegendMM LegendMM LegendMM 99.09     LegendNANA
04:00 -5.2 -9.5 72   LegendMM LegendMM LegendMM 99.19     LegendNANA
05:00 -7.0 -10.6 75   LegendMM LegendMM LegendMM 99.29     LegendNANA
06:00 -8.3 -12.2 73   LegendMM LegendMM LegendMM 99.40     LegendNANA
07:00 -10.8 -15.4 69   LegendMM LegendMM LegendMM 99.51     LegendNANA
08:00 -12.4 -17.8 64   LegendMM LegendMM LegendMM 99.68     LegendNANA
09:00 -13.4 -19.3 61   LegendMM LegendMM LegendMM 99.78     LegendNANA
10:00 -13.9 -19.7 61   LegendMM LegendMM LegendMM 99.92     LegendNANA
11:00 -14.7 -21.3 57   LegendMM LegendMM LegendMM 100.03     LegendNANA
12:00 -14.6 -21.1 58   LegendMM LegendMM LegendMM 100.03     LegendNANA
13:00 -14.9 -21.9 55   LegendMM LegendMM LegendMM 100.04     LegendNANA
14:00 -14.9 -21.2 59   LegendMM LegendMM LegendMM 100.07     LegendNANA
15:00 -15.7 -21.9 59   LegendMM LegendMM LegendMM 100.15     LegendNANA
16:00 -16.7 -23.3 57   LegendMM LegendMM LegendMM 100.25     LegendNANA
17:00 -17.4 -23.8 57   LegendMM LegendMM LegendMM 100.38     LegendNANA
18:00 -17.9 -24.3 57   LegendMM LegendMM LegendMM 100.46     LegendNANA
19:00 -18.4 -24.2 60   LegendMM LegendMM LegendMM 100.55     LegendNANA
20:00 -19.1 -25.3 58   LegendMM LegendMM LegendMM 100.62     LegendNANA
21:00 -19.9 -26.5 56   LegendMM LegendMM LegendMM 100.67     LegendNANA
22:00 -20.9 -27.4 56   LegendMM LegendMM LegendMM 100.69     LegendNANA
23:00 -21.4 -27.9 56   LegendMM LegendMM LegendMM 100.69     LegendNANA

Notes on Data Quality.

Legend

  • E = Estimated
  • M = Missing
  • NA = Not Available*
  • [empty] = Indicates an unobserved value
Date modified: